Regional Weather Roundup
Issued by NWS Columbia, SC

Home | Current Version | Previous Version | Text Only | Print | Product List | Glossary On
Versions: 1 2 3 4 5 6 7 8 9 10 11 12 13 14 15 16 17 18 19 20 21 22 23 24 25 26 27
000
ASUS42 KCAE 231310
RWRCAE
REGIONAL WEATHER ROUNDUP
NATIONAL WEATHER SERVICE COLUMBIA SC
900 AM EDT SUN JUL 23 2017

NOTE: "FAIR" INDICATES FEW OR NO CLOUDS BELOW 12,000 FEET WITH NO
SIGNIFICANT WEATHER AND/OR OBSTRUCTIONS TO VISIBILITY.

NOT ALL STATIONS ARE QUALITY CONTROLLED BY THE NATIONAL
WEATHER SERVICE. USE DATA WITH CAUTION...ESPECIALLY
DEWPOINT OBSERVATIONS.

SCZ001>056-GAZ040-063>065-077-231400-
...UPSTATE SOUTH CAROLINA...

CITY           SKY/WX    TMP DP  RH WIND       PRES   REMARKS
ANDERSON       SUNNY     81  74  79 W7        29.95S
LIBERTY        SUNNY     79  74  86 SW3       29.95R
SPARTANBURG    SUNNY     79  72  78 SW6       29.94S
CLEMSON        SUNNY     81  76  84 VRB6      29.96S
GREENVILLE     SUNNY     81  73  76 SW7       29.96S
GREENWOOD      SUNNY     81  72  74 SW9       29.96S
GREER          SUNNY     81  73  76 SW6       29.94S
ROCK HILL      SUNNY     82  73  74 W8        29.94S
CHESTER        SUNNY     81  72  74 SW3       29.94S
LAURENS        SUNNY     81  73  78 SW7       29.95S


...CENTRAL SOUTH CAROLINA...

CITY           SKY/WX    TMP DP  RH WIND       PRES   REMARKS
COLUMBIA APT   MOSUNNY   83  74  74 SW12      29.94R
COLUMBIA OWENS SUNNY     83  75  77 SW8       29.95R
MCENTIRE ANGB  MOSUNNY   82  75  79 SW10      29.95R
ORANGEBURG     SUNNY     81  74  79 SW9       29.96S
SUMTER SHAW    SUNNY     82  74  76 SW12      29.92S
NEWBERRY       SUNNY     81  73  78 SW8       29.98R
AIKEN          FAIR      81  73  78 SW9       30.01R
BARNWELL       FAIR      84  77  79 SW7       29.97S
MANNING        FAIR      81  77  89 W6        29.96R
CAMDEN         FAIR      82  73  74 SW9       29.95R
LANCASTER      SUNNY     81  77  89 S7        29.94S
WINNSBORO      SUNNY     81  73  78 SW8       29.95R


...EASTERN AND COASTAL SOUTH CAROLINA...

CITY           SKY/WX    TMP DP  RH WIND       PRES   REMARKS
MYRTLE BEACH   MOSUNNY   82  75  78 SW9       29.96S
N MYRTLE BCH   SUNNY     83  77  82 SW15      29.95R
CONWAY         FAIR      81  75  83 SW8       29.95R
MARION         FAIR      81  73  78 SW7       29.94R
HARTSVILLE     FAIR      79  73  83 SW7       29.94R
FLORENCE       SUNNY     82  76  81 SW9       29.94R
DARLINGTON     SUNNY     82  76  81 SW10      29.93R
CHARLESTON APT MOSUNNY   82  75  79 SW12      29.97F
MOUNT PLEASANT FAIR      82  75  78 SW8       29.97F
WALTERBORO     SUNNY     81  73  78 W6        29.99R
BEAUFORT       MOSUNNY   82  77  84 SW13      29.99S


...EASTERN GEORGIA...

CITY           SKY/WX    TMP DP  RH WIND       PRES   REMARKS
AUGUSTA BUSH F SUNNY     84  75  74 W9        29.96R
AUGUSTA DANIEL SUNNY     83  72  69 VRB5      29.98R
THOMSON        SUNNY     81  74  79 NW6       30.03R
WASHINGTON     FAIR      81  77  89 SW7       29.98S
CLAXTON        PTSUNNY   81  77  89 CALM      30.00S
SYLVANIA       SUNNY     82  78  88 W5        30.00S
STATESBORO     MOSUNNY   82  79  91 SW9       29.99F
SAVANNAH       PTSUNNY   81  75  82 SW10      30.00F


...SOUTHERN NORTH CAROLINA...

CITY           SKY/WX    TMP DP  RH WIND       PRES   REMARKS
CHARLOTTE      PTSUNNY   82  73  74 SW6       29.94R
MONROE         SUNNY     81  72  74 SW14      29.92S
ROCKINGHAM     SUNNY     81  75  84 SW8       29.93R
RUTHERFORDTON  SUNNY     75  75 100 CALM      29.95S
ASHEVILLE      SUNNY     74  71  91 CALM      30.02S

$$




USA.gov is the U.S. government's official web portal to all federal, state and local government web resources and services.